Wind_Speed
26 27 27 28 28 28 29 29 28 29 30 30 30 30 30 30 30 31 32 32 32 32 33 33 34 35 35 35 35 35 36 36 37 37 38 38 38 38 38 39 39 40 40
24 26 27 28 28 29 29 28 29 29 29 30 30 30 30 30 31 32 34 34 34 34 34 34 34 35 36 36 37 37 38 38 39 40 40 40 40 41 41 41 41 41 42
24 25 25 27 28 28 29 28 28 28 29 30 30 30 31 31 32 33 34 36 36 35 36 36 36 36 36 36 37 38 38 39 40 41 42 42 42 42 42 43 43 43 43
24 26 26 26 27 28 29 29 29 29 30 31 31 31 32 33 33 33 34 35 36 37 37 37 38 38 39 39 39 39 39 40 41 42 42 43 43 43 43 43 44 44 45
25 26 27 27 28 29 29 30 31 31 31 32 32 32 32 33 34 34 35 35 36 37 37 38 39 39 39 41 41 42 42 42 42 42 43 43 44 44 44 44 44 44 44
24 26 27 28 29 30 31 31 31 32 32 32 33 34 34 34 35 35 36 36 37 38 39 39 40 40 41 42 43 44 44 43 43 43 43 44 45 45 45 44 44 44 44
25 27 27 28 29 31 32 32 32 33 33 34 34 34 34 35 36 36 37 37 38 39 40 40 41 42 43 43 44 45 45 45 45 45 45 45 46 45 45 45 45 45 45
26 27 28 28 30 31 33 34 34 33 34 35 35 35 35 36 37 37 38 39 40 40 41 42 43 43 43 44 45 46 46 46 46 46 46 46 46 46 46 46 46 46 46
26 27 28 29 30 31 32 34 34 34 35 36 37 38 37 38 38 39 40 40 41 42 42 43 44 45 45 46 47 47 47 47 47 47 47 48 47 48 48 47 47 47 47
27 28 29 29 30 31 32 33 34 35 36 36 37 38 39 40 40 42 42 42 43 44 45 45 46 46 47 47 47 47 48 49 49 49 49 49 50 50 49 48 48 48 48
28 29 30 31 32 32 33 35 36 36 37 38 39 39 40 41 43 43 43 44 45 46 47 47 48 48 48 48 49 49 49 50 50 50 50 50 50 49 48 48 48 47 47
29 30 31 33 34 34 35 36 37 38 38 39 40 41 42 42 43 44 45 46 47 47 48 48 48 48 49 49 50 51 51 51 51 50 50 49 49 48 48 48 48 47 47
32 33 33 34 35 36 37 38 39 39 40 41 42 42 43 44 44 45 46 47 47 47 48 48 48 49 49 50 50 50 50 50 50 50 49 49 48 48 48 47 47 47 47
35 36 36 36 37 38 39 39 40 41 42 43 43 44 45 45 45 45 46 46 47 47 47 48 48 49 49 50 49 49 49 49 49 48 48 48 49 49 48 48 47 47 47
37 37 38 39 39 40 40 41 42 42 42 43 44 45 46 46 46 46 46 47 47 47 48 48 49 49 49 49 49 49 48 47 48 48 48 49 49 49 48 48 47 47 47
38 39 39 40 41 42 42 43 43 43 43 44 45 45 45 46 46 47 47 47 48 48 49 48 49 48 48 48 48 47 47 47 47 48 48 48 48 47 47 47 47 47 47
39 39 40 41 42 42 42 42 42 43 44 44 44 45 46 46 47 47 48 48 48 48 48 47 47 48 47 47 47 47 46 46 46 46 47 47 46 46 46 46 46 47 47
40 40 41 41 41 42 43 43 43 44 44 44 45 46 46 47 46 47 47 47 47 47 47 47 47 47 46 46 46 46 46 46 45 45 45 45 45 45 45 45 45 45 45
41 41 41 42 42 43 43 43 43 44 45 45 45 46 46 46 45 45 45 46 46 46 46 45 45 45 44 44 44 45 45 44 44 44 44 44 44 44 44 43 43 43 43
42 42 42 42 43 43 43 43 44 45 45 45 45 46 45 45 44 44 44 45 45 44 44 43 43 43 43 43 43 43 43 42 42 42 42 42 42 43 43 42 41 41 41
43 43 43 43 43 43 43 44 44 44 44 44 44 44 44 43 43 43 43 43 43 42 42 42 42 42 41 41 41 41 41 41 41 41 40 41 41 41 40 40 40 40 40
44 44 44 44 44 44 44 44 44 44 43 43 43 42 42 42 42 42 42 42 42 41 41 41 41 41 40 40 40 40 39 39 40 39 39 39 39 38 38 38 38 38 38
44 44 44 44 44 44 44 44 44 44 43 43 42 42 42 42 42 41 41 41 40 40 40 40 39 39 39 39 39 39 38 39 39 38 38 38 37 37 36 36 36 37 37
44 44 43 43 43 44 44 43 43 43 42 42 41 41 40 41 41 40 40 39 39 39 39 39 38 38 38 37 37 37 37 37 36 36 36 36 36 35 34 34 35 35 35
44 43 43 42 42 42 42 42 42 42 42 41 40 40 39 39 39 39 39 39 38 38 38 38 38 37 37 37 36 36 36 35 35 35 35 35 34 34 33 33 34 34 35
42 42 42 42 41 41 41 42 42 41 41 40 39 39 38 38 38 38 38 37 37 37 37 37 36 36 36 35 35 34 34 34 34 34 34 33 33 33 33 34 34 34 34
Wind_Direction
234 234 235 236 239 240 242 244 247 249 251 252 253 254 253 254 254 254 255 256 257 258 260 260 261 262 263 265 267 268 269 269 270 271 272 273 273 274 274 274 273 272 271
235 237 239 240 241 241 244 247 249 251 253 254 255 256 257 256 257 257 258 259 260 261 262 263 263 264 265 266 267 269 270 269 270 272 273 273 274 274 274 274 274 273 273
238 241 242 242 243 245 247 251 253 252 253 255 257 257 259 260 260 260 261 262 262 264 264 265 265 266 267 268 269 270 271 272 273 274 274 275 274 274 274 274 274 273 272
241 243 244 245 246 247 249 250 254 256 257 257 257 258 260 261 262 263 264 264 264 265 266 266 266 267 268 270 271 271 273 274 274 275 276 276 275 274 273 273 272 272 271
245 246 248 248 248 249 250 252 255 257 258 259 259 260 261 262 263 264 265 265 265 266 267 267 267 268 269 271 272 272 274 275 276 276 277 277 276 276 274 273 273 272 272
248 248 249 249 249 251 252 254 256 258 259 259 260 261 262 263 264 265 266 266 267 267 268 269 269 270 271 272 273 274 275 275 276 276 277 276 276 277 276 275 274 273 272
251 251 251 252 253 253 254 256 257 259 260 260 260 260 262 264 265 266 267 268 268 269 270 270 271 272 272 272 274 274 275 275 275 276 276 277 276 276 277 275 275 274 273
253 254 255 256 257 257 257 258 259 260 260 261 261 262 263 265 266 267 268 269 269 270 271 272 272 273 273 274 274 274 274 274 275 275 276 276 276 276 277 276 276 276 275
258 259 259 259 260 260 260 260 261 261 262 263 263 264 264 265 267 268 269 270 270 271 272 273 273 273 273 274 274 274 274 274 275 275 275 276 276 276 277 277 277 277 276
262 262 261 262 262 263 263 262 263 263 264 266 265 265 266 266 268 268 269 271 272 273 273 274 275 274 274 275 276 275 275 275 275 275 275 276 276 276 276 277 277 277 276
264 263 263 263 263 264 264 265 265 265 265 266 267 267 267 268 268 269 270 271 272 273 274 275 276 275 275 277 277 276 276 276 276 275 275 275 276 276 276 276 277 277 276
266 266 266 266 265 266 267 267 267 267 267 268 269 268 269 270 270 271 273 273 274 274 275 275 276 276 277 277 277 277 277 276 275 275 275 275 275 275 275 276 277 276 276
266 267 267 267 268 268 268 267 268 269 269 270 270 271 271 271 272 273 274 274 275 275 275 275 276 277 278 278 278 277 276 275 274 274 274 274 274 274 275 276 276 276 276
268 268 269 269 269 269 269 269 269 270 270 271 272 273 273 274 274 274 274 275 276 276 276 276 277 277 277 278 277 276 275 274 273 273 273 273 274 274 274 275 276 277 276
270 270 270 270 270 270 270 271 270 271 271 272 273 274 274 274 274 275 276 276 276 277 277 277 278 278 278 277 277 276 275 274 273 273 273 274 274 274 274 274 275 275 275
272 272 272 271 271 272 272 272 272 271 272 274 274 274 274 274 275 276 276 276 277 277 278 277 278 278 278 277 277 277 275 274 274 274 274 274 274 274 274 274 274 274 274
273 273 273 273 273 273 273 272 272 272 273 273 274 275 275 275 275 276 276 277 277 277 278 278 278 279 278 278 277 277 276 276 275 274 274 274 274 274 274 274 274 275 275
273 274 275 275 275 274 274 273 273 273 274 274 275 276 276 276 276 277 277 277 278 278 279 279 279 278 278 278 277 277 277 276 276 275 275 275 274 274 274 274 274 275 275
274 275 276 276 275 275 275 274 274 274 275 275 276 277 277 277 277 277 277 277 278 279 279 279 278 278 278 278 278 277 277 277 276 276 275 275 274 274 274 274 274 274 275
275 276 277 277 276 276 275 275 275 275 276 276 276 277 277 277 277 276 277 278 278 278 278 278 278 278 278 278 277 277 277 277 276 276 275 275 275 274 274 274 274 274 275
275 275 276 276 276 275 275 276 276 276 276 276 277 277 277 277 277 277 278 278 278 277 277 278 278 278 278 278 277 277 277 277 276 275 275 275 275 274 274 273 274 275 275
275 275 276 276 276 276 276 276 276 277 276 276 277 277 277 277 278 278 279 278 277 277 277 278 277 277 277 277 277 276 276 276 276 275 275 275 275 274 275 274 274 274 274
274 275 276 276 276 277 277 277 277 277 276 276 277 276 276 276 277 278 278 278 277 277 277 277 277 277 277 277 277 277 276 276 275 275 274 275 275 275 275 275 274 274 274
275 275 277 277 277 277 276 277 277 277 276 276 276 276 276 277 277 277 278 278 277 277 277 277 277 276 276 277 276 276 275 275 275 274 274 274 274 275 275 275 274 275 275
275 276 277 277 277 277 277 277 277 277 276 275 275 275 277 278 277 278 278 277 277 278 277 276 276 276 276 276 276 275 275 274 273 273 273 273 273 274 275 275 275 276 277
273 274 275 276 276 276 276 277 277 276 276 275 274 275 276 277 277 277 277 277 277 278 277 276 275 275 276 275 275 275 274 273 273 273 274 273 273 274 274 275 275 276 278
Height
5743 5745 5748 5750 5752 5754 5756 5757 5758 5760 5761 5762 5763 5764 5765 5766 5768 5769 5769 5770 5771 5772 5773 5773 5774 5775 5775 5776 5776 5776 5776 5775 5775 5774 5774 5774 5773 5772 5771 5770 5769 5769 5768
5739 5741 5743 5745 5747 5749 5751 5752 5753 5754 5755 5756 5757 5758 5759 5760 5761 5762 5762 5763 5764 5764 5765 5766 5766 5767 5767 5767 5767 5767 5767 5767 5766 5765 5765 5764 5764 5763 5762 5761 5760 5759 5758
5734 5736 5738 5740 5741 5743 5745 5745 5746 5748 5749 5750 5751 5752 5752 5753 5754 5754 5755 5755 5756 5756 5757 5757 5758 5758 5758 5758 5758 5758 5757 5757 5756 5755 5755 5754 5754 5753 5752 5751 5749 5748 5748
5729 5731 5733 5734 5736 5737 5738 5740 5740 5741 5743 5743 5744 5745 5745 5746 5746 5747 5747 5748 5748 5748 5749 5749 5749 5749 5749 5749 5749 5748 5748 5747 5746 5745 5744 5743 5742 5742 5742 5741 5739 5738 5737
5724 5726 5727 5728 5730 5731 5732 5733 5734 5735 5735 5736 5737 5738 5738 5738 5739 5739 5739 5740 5740 5740 5740 5740 5740 5740 5740 5740 5739 5738 5737 5737 5736 5735 5734 5733 5731 5730 5730 5730 5728 5727 5726
5719 5720 5721 5722 5723 5724 5725 5726 5727 5728 5728 5729 5729 5730 5730 5730 5731 5731 5731 5731 5731 5731 5731 5731 5731 5730 5730 5730 5729 5728 5727 5726 5725 5724 5723 5722 5721 5719 5718 5717 5716 5715 5715
5713 5714 5715 5716 5716 5717 5718 5719 5720 5720 5720 5721 5721 5721 5721 5722 5722 5722 5722 5722 5722 5721 5721 5721 5720 5720 5719 5719 5718 5717 5715 5714 5713 5712 5711 5710 5709 5708 5706 5705 5704 5703 5703
5707 5708 5708 5709 5710 5710 5710 5711 5711 5712 5712 5712 5712 5713 5713 5713 5713 5713 5712 5712 5712 5711 5711 5710 5709 5709 5708 5707 5706 5705 5703 5702 5701 5700 5699 5698 5697 5696 5694 5693 5692 5691 5691
5701 5701 5702 5702 5702 5702 5702 5703 5703 5703 5703 5703 5703 5704 5703 5703 5703 5703 5702 5702 5701 5701 5700 5699 5698 5697 5696 5695 5694 5693 5691 5690 5689 5688 5687 5685 5684 5683 5682 5680 5679 5678 5678
5694 5694 5695 5695 5695 5694 5694 5694 5694 5694 5694 5694 5694 5694 5694 5693 5692 5692 5692 5691 5690 5689 5688 5687 5686 5684 5683 5682 5681 5680 5678 5677 5676 5675 5674 5672 5671 5670 5669 5667 5666 5665 5664
5687 5687 5687 5686 5686 5686 5685 5685 5685 5685 5684 5684 5683 5683 5683 5682 5681 5680 5680 5679 5678 5677 5676 5675 5673 5672 5670 5669 5668 5666 5665 5664 5663 5661 5660 5659 5658 5656 5655 5654 5653 5651 5650
5678 5678 5678 5678 5677 5677 5676 5676 5675 5674 5674 5673 5673 5672 5671 5671 5670 5669 5668 5667 5666 5664 5663 5662 5660 5659 5658 5656 5655 5653 5651 5650 5649 5647 5646 5645 5644 5643 5642 5641 5640 5638 5637
5669 5669 5668 5668 5667 5667 5666 5665 5665 5664 5663 5662 5662 5661 5660 5659 5658 5657 5655 5654 5653 5651 5650 5648 5647 5645 5644 5642 5640 5639 5637 5636 5635 5634 5633 5632 5631 5630 5629 5627 5626 5625 5624
5659 5659 5658 5658 5657 5656 5655 5654 5653 5653 5652 5651 5650 5649 5648 5647 5645 5644 5642 5641 5640 5638 5636 5635 5633 5631 5630 5628 5626 5625 5623 5622 5621 5620 5619 5618 5617 5616 5615 5614 5613 5612 5610
5649 5648 5648 5647 5646 5645 5644 5642 5641 5641 5640 5639 5638 5637 5635 5634 5632 5631 5629 5627 5626 5624 5623 5621 5619 5617 5615 5614 5612 5610 5609 5608 5607 5606 5606 5605 5604 5603 5601 5601 5600 5598 5597
5638 5637 5636 5635 5634 5633 5632 5631 5629 5628 5627 5626 5625 5624 5622 5621 5620 5618 5616 5614 5612 5610 5608 5607 5605 5603 5601 5599 5598 5596 5595 5594 5594 5593 5592 5591 5590 5589 5588 5587 5586 5585 5584
5627 5626 5624 5623 5622 5620 5619 5618 5617 5616 5615 5613 5612 5611 5609 5608 5606 5604 5602 5600 5598 5596 5594 5592 5590 5589 5587 5585 5584 5582 5581 5581 5580 5579 5578 5577 5576 5575 5574 5573 5572 5571 5570
5615 5614 5612 5611 5609 5608 5606 5605 5604 5603 5602 5600 5599 5597 5596 5594 5592 5590 5588 5586 5584 5582 5580 5578 5576 5574 5573 5571 5570 5568 5567 5567 5566 5565 5564 5563 5562 5561 5560 5560 5559 5558 5557
5603 5601 5600 5598 5596 5595 5593 5592 5591 5590 5589 5587 5585 5584 5582 5580 5578 5576 5574 5572 5570 5568 5566 5564 5562 5560 5559 5557 5556 5554 5554 5553 5552 5551 5551 5550 5549 5548 5547 5547 5546 5545 5544
5590 5588 5587 5585 5583 5582 5580 5579 5578 5576 5575 5573 5571 5569 5568 5566 5564 5562 5560 5558 5556 5554 5552 5550 5548 5547 5546 5544 5542 5541 5541 5540 5539 5539 5538 5537 5536 5535 5534 5533 5533 5533 5531
5576 5575 5573 5572 5570 5568 5567 5566 5564 5562 5561 5559 5557 5556 5554 5552 5550 5549 5546 5544 5542 5540 5539 5537 5535 5533 5532 5531 5529 5528 5528 5527 5527 5526 5525 5524 5523 5522 5521 5521 5520 5520 5518
5563 5561 5560 5559 5557 5555 5553 5552 5550 5548 5547 5545 5544 5542 5540 5538 5537 5535 5533 5531 5529 5527 5526 5524 5522 5521 5519 5518 5517 5516 5515 5515 5514 5514 5513 5512 5511 5510 5509 5508 5508 5507 5506
5549 5547 5546 5545 5543 5541 5539 5538 5537 5534 5533 5532 5531 5529 5527 5525 5524 5522 5520 5518 5516 5515 5513 5512 5510 5509 5508 5506 5505 5504 5503 5502 5502 5501 5501 5500 5499 5498 5498 5497 5496 5495 5494
5535 5534 5533 5531 5530 5528 5526 5524 5523 5521 5520 5519 5517 5516 5514 5513 5511 5509 5508 5506 5504 5503 5501 5500 5499 5497 5496 5495 5494 5492 5491 5491 5490 5490 5489 5488 5488 5487 5486 5486 5485 5484 5483
5522 5521 5519 5518 5516 5514 5513 5511 5509 5507 5507 5506 5504 5503 5502 5500 5499 5497 5496 5494 5493 5491 5489 5488 5487 5486 5486 5484 5483 5482 5481 5480 5480 5479 5478 5478 5477 5477 5476 5475 5474 5473 5472
5508 5507 5505 5504 5503 5501 5500 5498 5496 5494 5493 5493 5492 5490 5489 5488 5486 5485 5484 5482 5481 5480 5478 5476 5476 5475 5474 5473 5472 5471 5471 5470 5469 5469 5468 5468 5467 5466 5466 5465 5464 5463 5461